• Em Portugal
  • Lista de países
  • Para 7 dias
  • Temperatura da água
  • Mapas de satélite
  • Mapa do tempo
  • Widgets de tempo
  • user-avatar
    Iniciar Sessão

    Previsão horária em Myitkyina

    Hoje, 20 Setembro, Quinta-feira

    Tempo Temperatura Precipitação Vento Pressão Humidade
    00:00 +25°C° 0.1 mm 0 m/s 739 mmHg 82%
    01:00 +25°C° 0.9 mm 0 m/s 739 mmHg 84%
    02:00 +24°C° 0.9 mm 0 m/s 740 mmHg 86%
    03:00 +24°C° 0.9 mm 0 m/s 740 mmHg 87%
    04:00 +24°C° 1.2 mm 0 m/s 740 mmHg 89%
    05:00 +24°C° 1.2 mm 0 m/s 740 mmHg 90%
    06:00 +24°C° 1.2 mm 0 m/s 741 mmHg 91%
    07:00 +24°C° 0.9 mm 0 m/s 741 mmHg 93%
    08:00 +25°C° 0.9 mm 0 m/s 741 mmHg 94%
    09:00 +25°C° 0.9 mm 0 m/s 741 mmHg 95%
    10:00 +27°C° 1 mm 0 m/s 741 mmHg 87%
    11:00 +29°C° 1 mm 0 m/s 741 mmHg 80%
    12:00 +30°C° 1 mm 0 m/s 741 mmHg 72%
    13:00 +31°C° 1 mm 0 m/s 740 mmHg 71%
    14:00 +31°C° 1 mm 0 m/s 739 mmHg 69%
    15:00 +33°C° 1 mm 1 m/s 739 mmHg 67%
    16:00 +29°C° 0.3 mm 0 m/s 739 mmHg 74%
    17:00 +28°C° 0.3 mm 0 m/s 739 mmHg 80%
    18:00 +26°C° 0.3 mm 0 m/s 739 mmHg 87%
    19:00 +26°C° 0 mm 0 m/s 740 mmHg 88%
    20:00 +25°C° 0 mm 0 m/s 740 mmHg 88%
    21:00 +25°C° 0 mm 0 m/s 741 mmHg 89%
    22:00 +25°C° 0 mm 0 m/s 741 mmHg 90%
    23:00 +24°C° 0 mm 0 m/s 741 mmHg 91%

    Amanhã, 21 Setembro, Sexta-feira

    Tempo Temperatura Precipitação Vento Pressão Humidade
    00:00 +24°C° 0 mm 0 m/s 741 mmHg 92%
    01:00 +24°C° 0.2 mm 0 m/s 741 mmHg 92%
    02:00 +24°C° 0.2 mm 0 m/s 741 mmHg 92%
    03:00 +23°C° 0.2 mm 0 m/s 741 mmHg 93%
    04:00 +23°C° 0.6 mm 0 m/s 741 mmHg 92%
    05:00 +24°C° 0.6 mm 0 m/s 741 mmHg 92%
    06:00 +24°C° 0.6 mm 0 m/s 742 mmHg 92%
    07:00 +26°C° 0.3 mm 0 m/s 742 mmHg 84%
    08:00 +28°C° 0.3 mm 0 m/s 742 mmHg 77%
    09:00 +30°C° 0.3 mm 0 m/s 743 mmHg 69%
    10:00 +31°C° 1.2 mm 0 m/s 742 mmHg 67%
    11:00 +34°C° 1.2 mm 1 m/s 741 mmHg 65%
    12:00 +35°C° 1.2 mm 1 m/s 741 mmHg 63%
    13:00 +35°C° 0.5 mm 1 m/s 740 mmHg 61%
    14:00 +35°C° 0.5 mm 1 m/s 739 mmHg 58%
    15:00 +35°C° 0.5 mm 1 m/s 739 mmHg 56%
    16:00 +33°C° 0.1 mm 1 m/s 739 mmHg 64%
    17:00 +31°C° 0.1 mm 1 m/s 739 mmHg 71%
    18:00 +27°C° 0.1 mm 0 m/s 739 mmHg 78%
    19:00 +27°C° 0.1 mm 0 m/s 740 mmHg 80%
    20:00 +26°C° 0.1 mm 0 m/s 741 mmHg 82%
    21:00 +26°C° 0.1 mm 0 m/s 741 mmHg 83%
    22:00 +25°C° 0.3 mm 0 m/s 741 mmHg 85%
    23:00 +25°C° 0.3 mm 0 m/s 741 mmHg 87%

    Depois de amanhã, 22 Setembro, Sábado

    Tempo Temperatura Precipitação Vento Pressão Humidade
    00:00 +24°C° 0.3 mm 0 m/s 741 mmHg 88%
    01:00 +24°C° 0.9 mm 0 m/s 741 mmHg 89%
    02:00 +24°C° 0.9 mm 0 m/s 741 mmHg 90%
    03:00 +24°C° 0.9 mm 0 m/s 741 mmHg 91%
    04:00 +24°C° 0.4 mm 0 m/s 741 mmHg 90%
    05:00 +24°C° 0.4 mm 0 m/s 741 mmHg 90%
    06:00 +24°C° 0.4 mm 0 m/s 742 mmHg 90%
    07:00 +26°C° 0.3 mm 0 m/s 742 mmHg 83%
    08:00 +28°C° 0.3 mm 0 m/s 742 mmHg 75%
    09:00 +30°C° 0.3 mm 0 m/s 743 mmHg 67%
    10:00 +31°C° 0.6 mm 0 m/s 742 mmHg 64%
    11:00 +32°C° 0.6 mm 0 m/s 741 mmHg 60%
    12:00 +36°C° 0.6 mm 1 m/s 740 mmHg 57%
    13:00 +35°C° 0.6 mm 1 m/s 740 mmHg 57%
    14:00 +35°C° 0.6 mm 1 m/s 739 mmHg 57%
    15:00 +35°C° 0.6 mm 1 m/s 738 mmHg 58%
    16:00 +33°C° 0.3 mm 1 m/s 738 mmHg 65%
    17:00 +29°C° 0.3 mm 0 m/s 738 mmHg 72%
    18:00 +27°C° 0.3 mm 0 m/s 739 mmHg 79%
    19:00 +27°C° 0.4 mm 0 m/s 739 mmHg 81%
    20:00 +26°C° 0.4 mm 0 m/s 740 mmHg 82%
    21:00 +26°C° 0.4 mm 0 m/s 741 mmHg 84%
    22:00 +25°C° 1.1 mm 0 m/s 741 mmHg 85%
    23:00 +25°C° 1.1 mm 0 m/s 741 mmHg 86%

    23 Setembro, Domingo

    Tempo Temperatura Precipitação Vento Pressão Humidade
    00:00 +25°C° 1.1 mm 0 m/s 741 mmHg 87%
    01:00 +24°C° 1.5 mm 0 m/s 740 mmHg 88%
    02:00 +24°C° 1.5 mm 0 m/s 740 mmHg 89%
    03:00 +24°C° 1.5 mm 0 m/s 740 mmHg 90%
    04:00 +24°C° 0.6 mm 0 m/s 740 mmHg 90%
    05:00 +24°C° 0.6 mm 0 m/s 741 mmHg 90%
    06:00 +24°C° 0.6 mm 0 m/s 741 mmHg 91%
    07:00 +25°C° 0.3 mm 0 m/s 742 mmHg 87%
    08:00 +26°C° 0.3 mm 0 m/s 742 mmHg 83%
    09:00 +27°C° 0.3 mm 0 m/s 742 mmHg 80%
    10:00 +29°C° 0.4 mm 0 m/s 742 mmHg 74%
    11:00 +30°C° 0.4 mm 0 m/s 741 mmHg 68%
    12:00 +32°C° 0.4 mm 0 m/s 740 mmHg 62%
    13:00 +32°C° 0.3 mm 0 m/s 740 mmHg 59%
    14:00 +33°C° 0.3 mm 0 m/s 739 mmHg 57%
    15:00 +33°C° 0.3 mm 0 m/s 738 mmHg 55%
    16:00 +31°C° 0.3 mm 0 m/s 738 mmHg 62%
    17:00 +29°C° 0.3 mm 0 m/s 738 mmHg 70%
    18:00 +27°C° 0.3 mm 0 m/s 739 mmHg 78%
    19:00 +26°C° 0.9 mm 0 m/s 739 mmHg 80%
    20:00 +26°C° 0.9 mm 0 m/s 740 mmHg 83%
    21:00 +25°C° 0.9 mm 0 m/s 740 mmHg 86%
    22:00 +25°C° 0.8 mm 0 m/s 740 mmHg 87%
    23:00 +24°C° 0.8 mm 0 m/s 740 mmHg 88%

    24 Setembro, Segunda-feira

    Tempo Temperatura Precipitação Vento Pressão Humidade
    00:00 +24°C° 0.8 mm 0 m/s 740 mmHg 89%
    01:00 +24°C° 0.4 mm 0 m/s 740 mmHg 89%
    02:00 +24°C° 0.4 mm 0 m/s 739 mmHg 89%
    03:00 +23°C° 0.4 mm 0 m/s 739 mmHg 90%
    04:00 +23°C° 0.5 mm 0 m/s 740 mmHg 90%
    05:00 +23°C° 0.5 mm 0 m/s 740 mmHg 90%
    06:00 +23°C° 0.5 mm 0 m/s 740 mmHg 90%
    07:00 +25°C° 0.3 mm 0 m/s 741 mmHg 84%
    08:00 +27°C° 0.3 mm 0 m/s 741 mmHg 79%
    09:00 +28°C° 0.3 mm 0 m/s 741 mmHg 73%
    10:00 +29°C° 0.9 mm 0 m/s 741 mmHg 73%
    11:00 +32°C° 0.9 mm 1 m/s 740 mmHg 72%
    12:00 +32°C° 0.9 mm 1 m/s 740 mmHg 71%
    13:00 +32°C° 0.9 mm 1 m/s 739 mmHg 73%
    14:00 +32°C° 0.9 mm 1 m/s 739 mmHg 76%
    15:00 +31°C° 0.9 mm 1 m/s 738 mmHg 78%
    16:00 +28°C° 0.5 mm 0 m/s 738 mmHg 82%
    17:00 +27°C° 0.5 mm 0 m/s 739 mmHg 86%
    18:00 +25°C° 0.5 mm 0 m/s 739 mmHg 91%
    19:00 +25°C° 0.1 mm 0 m/s 739 mmHg 91%
    20:00 +25°C° 0.1 mm 0 m/s 740 mmHg 91%
    21:00 +24°C° 0.1 mm 0 m/s 740 mmHg 91%
    22:00 +24°C° 0.1 mm 0 m/s 740 mmHg 91%
    23:00 +24°C° 0.1 mm 0 m/s 740 mmHg 91%

    25 Setembro, Terça-feira

    Tempo Temperatura Precipitação Vento Pressão Humidade
    00:00 +24°C° 0.1 mm 0 m/s 740 mmHg 91%
    01:00 +24°C° 0.4 mm 0 m/s 739 mmHg 91%
    02:00 +23°C° 0.4 mm 0 m/s 739 mmHg 91%
    03:00 +23°C° 0.4 mm 0 m/s 739 mmHg 91%
    04:00 +23°C° 0.7 mm 0 m/s 739 mmHg 92%
    05:00 +23°C° 0.7 mm 0 m/s 739 mmHg 92%
    06:00 +23°C° 0.7 mm 0 m/s 740 mmHg 93%
    07:00 +24°C° 0.6 mm 0 m/s 740 mmHg 91%
    08:00 +24°C° 0.6 mm 0 m/s 740 mmHg 89%
    09:00 +25°C° 0.6 mm 0 m/s 741 mmHg 87%
    10:00 +26°C° 0.3 mm 0 m/s 740 mmHg 83%
    11:00 +27°C° 0.3 mm 0 m/s 740 mmHg 79%
    12:00 +30°C° 0.3 mm 1 m/s 739 mmHg 75%
    13:00 +30°C° 0.4 mm 1 m/s 739 mmHg 75%
    14:00 +30°C° 0.4 mm 1 m/s 738 mmHg 75%
    15:00 +31°C° 0.4 mm 1 m/s 737 mmHg 75%
    16:00 +29°C° 0.6 mm 1 m/s 737 mmHg 81%
    17:00 +26°C° 0.6 mm 0 m/s 738 mmHg 87%
    18:00 +25°C° 0.6 mm 0 m/s 738 mmHg 93%
    19:00 +24°C° 0.2 mm 0 m/s 738 mmHg 93%
    20:00 +24°C° 0.2 mm 0 m/s 739 mmHg 94%
    21:00 +24°C° 0.2 mm 0 m/s 739 mmHg 94%
    22:00 +23°C° 0.4 mm 0 m/s 739 mmHg 94%
    23:00 +23°C° 0.4 mm 0 m/s 739 mmHg 94%
    Mostrar mais